GW1851 Weather Reports


Display with metric or nautical units.
time (UTC)temp
F
wind
direction
speed
MPH
gust
MPH
rain 1hr
in
rain 24hr
in
rain mn
in
humidity
%
barometer
mb
20260503032441 44 213 0.0 0.0 0.00 0.00 0.00 79 1018.7
20260503031938 43 213 0.0 0.0 0.00 0.00 0.00 79 1018.8
20260503031436 44 213 0.0 0.0 0.00 0.00 0.00 78 1018.8
20260503030932 44 213 0.0 0.0 0.00 0.00 0.00 78 1018.9
20260503030429 44 213 0.0 0.0 0.00 0.00 0.00 77 1018.6
20260503025926 44 213 0.0 0.0 0.00 0.00 0.00 77 1018.7
20260503025422 44 213 0.0 0.0 0.00 0.00 0.00 76 1018.9
20260503024920 45 213 0.0 0.0 0.00 0.00 0.00 75 1018.8
20260503024416 45 213 0.0 0.0 0.00 0.00 0.00 74 1018.7
20260503023914 45 213 0.0 0.0 0.00 0.00 0.00 74 1018.9
20260503023410 45 213 0.0 0.0 0.00 0.00 0.00 74 1018.7
20260503022908 45 213 0.0 0.0 0.00 0.00 0.00 73 1018.7
20260503022402 46 213 0.0 0.0 0.00 0.00 0.00 72 1018.6
20260503021858 46 213 0.0 0.0 0.00 0.00 0.00 71 1018.6
20260503021355 47 213 0.0 0.0 0.00 0.00 0.00 69 1019.0
20260503020852 47 213 0.0 0.0 0.00 0.00 0.00 70 1018.5
20260503020350 47 213 0.0 0.0 0.00 0.00 0.00 68 1018.6
20260503015846 47 213 0.0 0.0 0.00 0.00 0.00 67 1018.6
20260503015343 48 213 0.0 0.0 0.00 0.00 0.00 65 1018.8
20260503014839 48 213 0.0 0.0 0.00 0.00 0.00 65 1018.4
20260503014336 49 213 0.0 0.0 0.00 0.00 0.00 64 1018.5
20260503013834 49 213 0.0 0.0 0.00 0.00 0.00 64 1018.4
20260503013331 49 213 0.0 0.0 0.00 0.00 0.00 62 1018.3
20260503012828 49 213 0.0 0.0 0.00 0.00 0.00 61 1018.6
20260503012326 50 213 0.0 0.0 0.00 0.00 0.00 62 1018.3
20260503011822 50 213 0.0 0.0 0.00 0.00 0.00 60 1018.3
20260503011319 51 213 0.0 0.0 0.00 0.00 0.00 57 1018.3
20260503010815 51 213 0.0 0.0 0.00 0.00 0.00 57 1018.4
20260503010313 51 213 0.0 0.0 0.00 0.00 0.00 55 1018.5
20260503005809 52 213 0.0 0.0 0.00 0.00 0.00 53 1018.3
20260503005307 52 213 0.0 0.0 0.00 0.00 0.00 52 1018.4
20260503004803 53 213 0.0 0.0 0.00 0.00 0.00 53 1018.4
20260503004301 53 213 0.0 0.0 0.00 0.00 0.00 53 1018.1
20260503003758 53 213 0.0 0.0 0.00 0.00 0.00 51 1018.2
20260503003255 54 213 0.0 0.0 0.00 0.00 0.00 51 1018.3
20260503002752 54 213 0.0 0.0 0.00 0.00 0.00 49 1018.5
20260503002249 55 218 0.0 0.0 0.00 0.00 0.00 47 1018.4
20260503001745 55 218 0.0 0.0 0.00 0.00 0.00 45 1018.4
20260503001241 56 218 0.0 0.0 0.00 0.00 0.00 46 1018.4
20260503000739 56 231 2.0 2.0 0.00 0.00 0.00 43 1018.4
20260503000236 56 226 0.0 0.0 0.00 0.00 0.00 43 1018.5
20260502235733 57 225 1.0 2.0 0.00 0.00 0.00 44 1018.6
20260502235231 57 226 0.0 0.0 0.00 0.00 0.00 46 1018.5
20260502234727 57 218 0.0 0.0 0.00 0.00 0.00 44 1018.5
20260502234225 57 218 0.0 0.0 0.00 0.00 0.00 43 1018.4
20260502233720 57 222 1.0 1.0 0.00 0.00 0.00 43 1018.5
20260502233217 57 220 0.0 0.0 0.00 0.00 0.00 43 1018.5
20260502232713 57 224 0.0 0.0 0.00 0.00 0.00 42 1018.6
20260502232211 57 222 0.0 1.0 0.00 0.00 0.00 41 1018.5
20260502231707 57 224 0.0 1.0 0.00 0.00 0.00 38 1018.7
20260502231205 58 221 2.0 3.0 0.00 0.00 0.00 39 1018.5
20260502230703 58 247 3.0 5.0 0.00 0.00 0.00 37 1018.7
20260502230201 58 225 0.0 1.0 0.00 0.00 0.00 39 1018.7
20260502225656 59 227 0.0 0.0 0.00 0.00 0.00 40 1018.6
20260502225154 59 224 1.0 1.0 0.00 0.00 0.00 37 1018.6
20260502224650 58 252 0.0 1.0 0.00 0.00 0.00 39 1018.7
20260502224147 59 163 0.0 0.0 0.00 0.00 0.00 36 1018.6
20260502223645 59 215 1.0 1.0 0.00 0.00 0.00 37 1018.8
20260502223143 58 213 1.0 2.0 0.00 0.00 0.00 35 1018.8
20260502222640 57 109 2.0 3.0 0.00 0.00 0.00 33 1018.9
20260502222137 58 217 0.0 1.0 0.00 0.00 0.00 39 1018.9
20260502221632 57 225 1.0 2.0 0.00 0.00 0.00 37 1018.7
20260502221130 58 296 2.0 2.0 0.00 0.00 0.00 38 1018.8
20260502220626 58 213 1.0 1.0 0.00 0.00 0.00 34 1018.8
20260502220122 58 228 0.0 0.0 0.00 0.00 0.00 36 1018.8
20260502215619 58 211 1.0 1.0 0.00 0.00 0.00 34 1018.7
20260502215116 58 239 0.0 0.0 0.00 0.00 0.00 40 1018.7
20260502214613 57 225 1.0 1.0 0.00 0.00 0.00 37 1018.8
20260502214111 58 219 1.0 2.0 0.00 0.00 0.00 39 1019.1
20260502213608 58 226 2.0 2.0 0.00 0.00 0.00 38 1018.9
20260502213105 58 226 0.0 1.0 0.00 0.00 0.00 39 1018.8
20260502212604 58 244 3.0 5.0 0.00 0.00 0.00 35 1019.0
20260502212101 58 255 2.0 3.0 0.00 0.00 0.00 35 1019.0
20260502211556 59 258 4.0 6.0 0.00 0.00 0.00 38 1018.9
20260502211054 59 345 4.0 5.0 0.00 0.00 0.00 35 1018.9
20260502210551 58 216 1.0 1.0 0.00 0.00 0.00 35 1018.9
20260502210048 59 246 1.0 1.0 0.00 0.00 0.00 34 1019.1
20260502205544 59 229 1.0 2.0 0.00 0.00 0.00 37 1019.2
20260502205042 59 242 1.0 2.0 0.00 0.00 0.00 35 1019.1
20260502204538 59 220 1.0 1.0 0.00 0.00 0.00 36 1019.2
20260502204036 57 227 0.0 0.0 0.00 0.00 0.00 34 1019.2
20260502203533 58 84 3.0 3.0 0.00 0.00 0.00 33 1019.3
20260502203030 60 306 1.0 2.0 0.00 0.00 0.00 40 1019.2
20260502202526 60 312 4.0 6.0 0.00 0.00 0.00 33 1019.3
20260502202025 60 76 2.0 3.0 0.00 0.00 0.00 33 1019.3
20260502201520 60 223 2.0 2.0 0.00 0.00 0.00 32 1019.5
20260502201016 60 240 1.0 1.0 0.00 0.00 0.00 38 1019.6
20260502200513 58 151 1.0 1.0 0.00 0.00 0.00 34 1019.8
20260502200011 60 233 2.0 2.0 0.00 0.00 0.00 35 1020.0
20260502195508 59 237 0.0 1.0 0.00 0.00 0.00 33 1019.6
20260502195003 60 223 3.0 5.0 0.00 0.00 0.00 33 1019.9
20260502194501 59 232 0.0 1.0 0.00 0.00 0.00 33 1019.8
20260502193956 58 308 3.0 3.0 0.00 0.00 0.00 38 1019.9
20260502193454 57 300 1.0 2.0 0.00 0.00 0.00 39 1019.8
20260502192949 57 148 1.0 2.0 0.00 0.00 0.00 37 1020.0
20260502192447 58 205 1.0 1.0 0.00 0.00 0.00 41 1020.1
20260502191943 58 206 1.0 1.0 0.00 0.00 0.00 36 1020.1
20260502191441 59 247 3.0 5.0 0.00 0.00 0.00 41 1019.9
20260502190939 59 224 0.0 1.0 0.00 0.00 0.00 40 1020.0
20260502190436 59 45 2.0 3.0 0.00 0.00 0.00 38 1020.0
20260502185932 60 346 2.0 5.0 0.00 0.00 0.00 38 1020.1
20260502185427 59 198 1.0 2.0 0.00 0.00 0.00 38 1020.0
20260502184925 58 218 1.0 2.0 0.00 0.00 0.00 38 1020.3
20260502184420 57 215 2.0 3.0 0.00 0.00 0.00 38 1020.6
20260502183917 55 226 1.0 1.0 0.00 0.00 0.00 43 1020.5
20260502183413 56 224 1.0 1.0 0.00 0.00 0.00 42 1020.5
20260502182909 55 273 1.0 1.0 0.00 0.00 0.00 45 1020.4
20260502182404 55 166 3.0 3.0 0.00 0.00 0.00 42 1020.3
20260502181901 55 242 1.0 2.0 0.00 0.00 0.00 43 1020.4
20260502181359 57 274 1.0 2.0 0.00 0.00 0.00 43 1020.5
20260502180857 58 53 1.0 3.0 0.00 0.00 0.00 43 1020.4
20260502180354 59 204 2.0 2.0 0.00 0.00 0.00 43 1020.5
20260502170312 55 224 0.0 1.0 0.00 0.00 0.00 44 1020.9
20260502164300 55 223 2.0 2.0 0.00 0.00 0.00 54 1021.1
20260502163756 56 193 1.0 1.0 0.00 0.00 0.00 49 1021.4
20260502163252 55 314 3.0 3.0 0.00 0.00 0.00 50 1021.5
20260502162749 56 231 1.0 1.0 0.00 0.00 0.00 53 1021.3
20260502162246 55 195 0.0 0.0 0.00 0.00 0.00 53 1021.1
20260502161743 55 226 0.0 0.0 0.00 0.00 0.00 51 1021.3
20260502161239 55 291 2.0 2.0 0.00 0.00 0.00 52 1021.2
20260502160737 56 241 1.0 1.0 0.00 0.00 0.00 53 1021.3
20260502160236 55 265 1.0 2.0 0.00 0.00 0.00 53 1021.4
20260502152155 52 216 1.0 1.0 0.00 0.00 0.00 62 1021.5
20260502151652 52 189 0.0 0.0 0.00 0.00 0.00 64 1021.5
20260502151149 53 164 1.0 1.0 0.00 0.00 0.00 62 1021.5
20260502150647 52 175 1.0 2.0 0.00 0.00 0.00 66 1021.5
20260502150143 53 199 0.0 1.0 0.00 0.00 0.00 63 1021.2
20260502140106 50 226 1.0 2.0 0.00 0.00 0.00 66 1021.3
20260502130532 46 220 1.0 1.0 0.00 0.00 0.00 77 1020.9
20260502123515 42 214 0.0 0.0 0.00 0.00 0.00 85 1020.5
20260502123011 42 220 0.0 0.0 0.00 0.00 0.00 87 1020.7
20260502122508 42 222 0.0 0.0 0.00 0.00 0.00 88 1020.8
20260502122005 42 221 0.0 0.0 0.00 0.00 0.00 87 1020.4
20260502121503 42 208 1.0 1.0 0.00 0.00 0.00 87 1020.5
20260502121000 41 209 0.0 0.0 0.00 0.00 0.00 88 1020.3
20260502120456 41 111 2.0 2.0 0.00 0.00 0.00 89 1020.3
20260502115450 40 228 0.0 0.0 0.00 0.00 0.00 89 1020.3
20260502114946 40 221 0.0 0.0 0.00 0.00 0.00 90 1020.2
20260502114443 40 225 0.0 0.0 0.00 0.00 0.00 90 1020.3
20260502113941 40 234 0.0 0.0 0.00 0.00 0.00 91 1020.2
20260502113438 40 215 0.0 0.0 0.00 0.00 0.00 92 1020.0
20260502112937 40 229 0.0 0.0 0.00 0.00 0.00 92 1020.1
20260502112434 40 216 0.0 0.0 0.00 0.00 0.00 91 1019.9
20260502111931 40 227 0.0 0.0 0.00 0.00 0.00 90 1020.1
20260502111428 40 232 0.0 0.0 0.00 0.00 0.00 90 1019.9
20260502110926 40 215 0.0 0.0 0.00 0.00 0.00 88 1020.0
20260502110423 41 208 0.0 0.0 0.00 0.00 0.00 88 1020.1
20260502105920 41 218 0.0 0.0 0.00 0.00 0.00 87 1020.1
20260502105417 41 209 0.0 0.0 0.00 0.00 0.00 86 1020.2
20260502104916 41 211 0.0 0.0 0.00 0.00 0.00 85 1020.0
20260502104412 41 174 0.0 0.0 0.00 0.00 0.00 86 1020.0
20260502103909 42 206 0.0 0.0 0.00 0.00 0.00 87 1019.9
20260502103408 42 221 0.0 0.0 0.00 0.00 0.00 88 1020.0
20260502102904 42 205 0.0 0.0 0.00 0.00 0.00 90 1020.1
20260502102400 42 247 0.0 0.0 0.00 0.00 0.00 90 1019.9
20260502101858 42 220 0.0 0.0 0.00 0.00 0.00 89 1019.7
20260502101356 42 224 0.0 0.0 0.00 0.00 0.00 90 1019.8
20260502100854 42 225 0.0 0.0 0.00 0.00 0.00 90 1019.6
20260502100353 42 228 0.0 0.0 0.00 0.00 0.00 89 1019.5
20260502091327 43 231 0.0 0.0 0.00 0.00 0.00 90 1019.4
20260502090825 42 208 0.0 0.0 0.00 0.00 0.00 90 1019.1
20260502090321 42 209 0.0 0.0 0.00 0.00 0.00 93 1019.5
20260502071216 39 230 0.0 0.0 0.00 0.00 0.00 99 1018.9
20260502070715 39 230 0.0 0.0 0.00 0.00 0.00 99 1018.9
20260502070212 39 230 0.0 0.0 0.00 0.00 0.00 99 1018.9
20260502065710 39 231 0.0 0.0 0.00 0.00 0.00 99 1018.6
20260502065208 39 230 0.0 0.0 0.00 0.00 0.00 99 1018.9
20260502064706 39 230 0.0 0.0 0.00 0.00 0.00 99 1019.0
20260502064203 39 230 0.0 0.0 0.00 0.00 0.00 99 1018.9
20260502063701 40 230 0.0 0.0 0.00 0.00 0.00 99 1018.9
20260502063158 39 230 0.0 0.0 0.00 0.00 0.00 99 1018.6
20260502062655 39 230 0.0 0.0 0.00 0.00 0.00 99 1018.7
20260502062153 39 229 0.0 0.0 0.00 0.00 0.00 99 1018.8
20260502061651 39 229 0.0 0.0 0.00 0.00 0.00 99 1019.0
20260502061148 39 229 0.0 0.0 0.00 0.00 0.00 99 1019.0
20260502060648 39 229 0.0 0.0 0.00 0.00 0.00 99 1019.0
20260502060145 39 229 0.0 0.0 0.00 0.00 0.00 99 1019.0
20260502055643 39 229 0.0 0.0 0.00 0.00 0.00 99 1019.0
20260502055141 39 229 0.0 0.0 0.00 0.00 0.00 99 1018.9
20260502054640 39 229 0.0 0.0 0.00 0.00 0.00 99 1018.8
20260502054136 39 229 0.0 0.0 0.00 0.00 0.00 99 1018.9
20260502053634 39 228 0.0 0.0 0.00 0.00 0.00 99 1018.9
20260502053131 39 228 0.0 0.0 0.00 0.00 0.00 99 1018.9
20260502052629 40 228 0.0 0.0 0.00 0.00 0.00 99 1019.0
20260502052127 40 228 0.0 0.0 0.00 0.00 0.00 99 1019.0
20260502051625 40 228 0.0 0.0 0.00 0.00 0.00 99 1018.9
20260502051123 40 227 0.0 0.0 0.00 0.00 0.00 99 1018.9
20260502050619 40 227 0.0 0.0 0.00 0.00 0.00 99 1018.9
20260502050115 40 227 0.0 0.0 0.00 0.00 0.00 99 1018.9
20260502045612 40 227 0.0 0.0 0.00 0.00 0.00 98 1018.9
20260502045109 41 227 0.0 0.0 0.00 0.00 0.00 98 1018.9
20260502044605 41 227 0.0 0.0 0.00 0.00 0.00 98 1018.9
20260502044102 41 227 0.0 0.0 0.00 0.00 0.00 98 1018.8
20260502043600 41 227 0.0 0.0 0.00 0.00 0.00 98 1018.8
20260502043057 41 227 0.0 0.0 0.00 0.00 0.00 98 1018.5
20260502042551 41 227 0.0 0.0 0.00 0.00 0.00 98 1018.9
20260502042049 41 227 0.0 0.0 0.00 0.00 0.00 98 1018.7
20260502041546 41 227 0.0 0.0 0.00 0.00 0.00 98 1018.8
20260502041043 41 227 0.0 0.0 0.00 0.00 0.00 97 1018.6
20260502040540 41 227 0.0 0.0 0.00 0.00 0.00 97 1018.8
20260502040037 41 227 0.0 0.0 0.00 0.00 0.00 97 1018.8
20260502035532 41 227 0.0 0.0 0.00 0.00 0.00 97 1018.9
20260502035031 41 228 0.0 0.0 0.00 0.00 0.00 97 1019.0
20260502034528 41 227 0.0 0.0 0.00 0.00 0.00 97 1018.9
20260502034027 42 227 0.0 0.0 0.00 0.00 0.00 96 1018.7
20260502033525 42 238 0.0 0.0 0.00 0.00 0.00 96 1018.9
20260502033022 41 226 0.0 0.0 0.00 0.00 0.00 96 1018.9